Home > Time Zones > World Clock > Weather > Peru > Lima > Past weeks

Flag for Peru Weather past 2 weeks in Lima, Lima, Peru

Now
61 °F

Mostly cloudy.


Feels Like: 61 °F
Forecast: 61 / 70 °F
Wind: 10 mph from South

Location: Lima-Callao / Aerop. Internacional Jorgechavez

Current Time: Sep 1, 2014 at 3:37:48 AM

Latest Report: Sep 1, 2014 at 3:00 AM


Visibility: 5 mi

Pressure: 29.95 "Hg

Humidity: 88%

Dew point: 57 °F

Location of LimaLocation

Historic Weather in Lima — Graph

°F

Lima temperature yesterday

Maximum temperature yesterday: 64 °F (at 12:00 PM)
Minimum temperature yesterday: 59 °F (at 2:00 AM)
Average temperature yesterday: 62 °F

Past Weeks' High & Low Weather Summary

 TemperatureHumidityPressure
High68 °F (Aug 25, 1:00 PM)100% (Aug 31, 2:00 AM)30.07 "Hg (Aug 31, 2:00 AM)
Low59 °F (Aug 17, 2:00 AM)68% (Aug 22, 11:00 AM)29.86 "Hg (Aug 25, 3:00 PM)
Average62 °F82%29.97 "Hg
* Reported Aug 17 2:00 AM — Sep 1 2:00 AM, Lima, Weather by CustomWeather, © 2014

Note: Actual official high and low records may vary slightly from our data, if they occured in-between our weather recording intervals... More about our weather records

Advertising

Lima weather history for previous 24 hours

 ConditionsComfort  
Time TempWeatherWind HumidityBarometerVisibility
2:00 AM
Sep 1
61 °FLow clouds.9 mph88%29.95 "HgN/A
1:00 AM61 °FMostly cloudy.10 mph88%29.98 "HgN/A
12:00 AM61 °FDrizzle. Mostly cloudy.12 mph88%29.98 "Hg5 mi
11:00 PM
Aug 31
61 °FMostly cloudy.9 mph88%30.01 "Hg5 mi
10:00 PM61 °FMostly cloudy.9 mph88%30.01 "Hg6 mi
9:00 PM61 °FMostly cloudy.10 mph88%29.98 "Hg6 mi
8:00 PM61 °FMostly cloudy.9 mph88%29.98 "Hg6 mi
7:00 PM61 °FOvercast.12 mph88%29.95 "Hg6 mi
6:00 PM61 °FMore clouds than sun.10 mph88%29.95 "Hg5 mi
5:00 PM63 °FMore clouds than sun.12 mph83%29.92 "Hg5 mi
4:00 PM63 °FMore clouds than sun.8 mph83%29.92 "HgN/A
3:00 PM64 °FMore clouds than sun.8 mph78%29.92 "HgN/A
2:00 PM64 °FMore clouds than sun.10 mph78%29.95 "HgN/A
1:00 PM64 °FOvercast.12 mph78%29.95 "HgN/A
12:00 PM64 °FMore clouds than sun.10 mph78%29.95 "HgN/A
11:00 AM63 °FMore clouds than sun.12 mph83%29.98 "HgN/A
10:00 AM63 °FLow clouds.10 mph83%30.01 "Hg6 mi
9:00 AM61 °FMore clouds than sun.10 mph88%30.01 "Hg5 mi
8:00 AM61 °FDrizzle. Fog.8 mph94%29.98 "Hg3 mi
7:00 AM61 °FLow clouds.8 mph88%29.95 "Hg4 mi
6:00 AM61 °FOvercast.8 mph88%29.95 "HgN/A
5:00 AM61 °FOvercast.9 mph88%29.95 "HgN/A
4:00 AM61 °FMostly cloudy.10 mph88%29.95 "HgN/A
3:00 AM59 °FLow clouds.10 mph94%29.95 "Hg5 mi
Weather by CustomWeather, © 2014

See weather overviewHow to use our weather pages